[[{"header":{"parameterUnit":"m.s-1","parameterCategory":2,"la1":30.2991,"la2":30.254,"lo1":-89.0895,"lo2":-89.0444,"dy":0.0017,"dx":0.0017,"nx":28,"ny":28,"refTime":"2025-03-04T09:00:00:Z","depth":"0","parameterNumber":2,"parameterNumberName":"U-component_of_CURRENTS"},"data":[0,0,0,0,0,0,0,0,0,0,0,0,0,0,0,0,0,0,0,0,0,0,0,0,0,0,0,0,0,0,0,0,0,0,0,0,0,0,0,0,0,0,0,0,0,0,0,0,0,0,0,0,0,0,0,0,0,0,0.4067,0.4068,0,0.4098,0.4098,0.4098,0.4084,0.4084,0.4084,0.4083,0.4061,0.4061,0.4061,0,0,0,0,0,0,0,0,0,0,0,0,0,0.4014,0.4015,0.4067,0.4068,0.4069,0.4098,0.4098,0.4098,0.4085,0.4084,0.4084,0.4083,0.4061,0.4061,0.4061,0,0,0,0,0,0,0,0,0,0,0,0,0,0.4037,0.4015,0.4067,0.4068,0.4069,0.4098,0.4098,0.4098,0.4085,0.4084,0.4083,0.4083,0.4061,0.4061,0.4061,0.4071,0,0,0.406,0.406,0,0,0,0,0,0,0,0,0.4035,0.4038,0.4067,0.4068,0.4069,0.409,0.4071,0.4088,0.4085,0.4075,0.4083,0.4083,0.4069,0.4068,0.407,0.407,0.4069,0.406,0.406,0.4059,0.4059,0,0,0,0,0,0,0,0.4034,0.4037,0.4076,0.4068,0.4069,0.4073,0.4075,0.4074,0.4071,0.4076,0.4076,0.4085,0.4068,0.4071,0.407,0.4069,0.406,0.406,0.4059,0.4059,0.4121,0.4122,0,0,0,0,0,0,0.4037,0.4035,0.4075,0.4077,0.4054,0.4075,0.4077,0.4081,0.4072,0.4072,0.4086,0.4084,0.4072,0.407,0.4069,0.4106,0.4059,0.4059,0.4059,0.4119,0.4121,0.4123,0,0,0,0,0,0,0.4036,0.404,0.4073,0.406,0.4065,0.4077,0.4081,0.4082,0.4089,0.4081,0.4079,0.4093,0.4071,0.4069,0.4084,0.4104,0.4059,0.4059,0.4117,0.4119,0.4122,0.4164,0,0,0,0,0,0,0.4034,0.4039,0.4041,0.406,0.4066,0.4096,0.4082,0.4083,0.4097,0.4096,0.4087,0.4084,0.407,0.4085,0.4084,0.4103,0.4059,0.4114,0.4118,0.4121,0.416,0.4168,0.4174,0,0,0,0,0,0.4032,0.4036,0.4041,0.4046,0.4069,0.4097,0.41,0.4104,0.4099,0.4106,0.4108,0.4084,0.4106,0.4086,0.4084,0.4104,0.4113,0.4117,0.4121,0.4157,0.4166,0.4174,0,0,0,0,0,0,0.4008,0.4037,0.4042,0.4052,0.4077,0.4096,0.4103,0.4111,0.4118,0.4116,0.4103,0.4101,0.4128,0.4114,0.4093,0.4135,0.4108,0.4111,0.4136,0.4144,0.4151,0.4175,0.4058,0,0,0,0,0,0.4007,0.4018,0.4049,0.4057,0.4071,0.409,0.4101,0.411,0.4123,0.4125,0.4121,0.4126,0.4144,0.4141,0.4153,0.4166,0.4181,0.4182,0.4189,0.4194,0.4216,0.4259,0.4272,0.4136,0.4136,0.4136,0,0,0.3999,0.4017,0.4022,0.4054,0.407,0.4095,0.4094,0.4118,0.4145,0.4122,0.4146,0.4152,0.4158,0.4183,0.4192,0.4169,0.4241,0.42,0.4204,0.4223,0.4265,0.4278,0.429,0.4139,0.4139,0.4138,0,0,0.3991,0.4007,0.4017,0.4043,0.4079,0.41,0.4111,0.414,0.4158,0.4183,0.4188,0.4213,0.4213,0.4237,0.4245,0.43,0.4285,0.4295,0.4335,0.4376,0.4388,0.4398,0.443,0.4443,0.4286,0.4287,0.4287,0,0.3983,0.3996,0.4025,0.4047,0.4072,0.4104,0.4129,0.416,0.419,0.4215,0.4194,0.4248,0.4246,0.4305,0.4325,0.4316,0.4332,0.4296,0.4385,0.4395,0.4405,0.4435,0.4449,0.4289,0.4289,0.4288,0.4288,0,0.3985,0.4001,0.4012,0.4053,0.4088,0.4113,0.4169,0.4204,0.4224,0.425,0.431,0.4321,0.4353,0.4358,0.4354,0.443,0.4417,0.4395,0.436,0.4421,0.4449,0.4462,0.4293,0.4292,0.4291,0.429,0,0,0.3951,0.4002,0.4005,0.4021,0.4094,0.4116,0.4189,0.4255,0.4293,0.4331,0.4383,0.443,0.4442,0.4457,0.4464,0.4497,0.4574,0.4475,0.4476,0.4501,0.4664,0.4648,0.466,0.4561,0.4564,0.4566,0.4654,0,0.3943,0.397,0.4011,0.4046,0.407,0.4141,0.4196,0.4267,0.432,0.4378,0.4435,0.4478,0.4479,0.4491,0.4537,0.4577,0.4612,0.4553,0.4608,0.461,0.4582,0.4676,0.4614,0.4687,0.4667,0.4669,0.4671,0,0.3929,0.3953,0.398,0.4042,0.4059,0.409,0.4189,0.4246,0.436,0.44,0.448,0.4523,0.4622,0.4585,0.4705,0.4665,0.4677,0.4692,0.4695,0.4679,0.4619,0.4625,0.4712,0.4657,0.4691,0.469,0.4688,0,0.3879,0.3929,0.3945,0.3967,0.4046,0.408,0.4132,0.4244,0.4324,0.4424,0.4502,0.4588,0.4673,0.4707,0.4783,0.4739,0.4896,0.4829,0.4827,0.4824,0.4785,0.4775,0.4823,0.4899,0.4899,0.4899,0.4899,0,0.3853,0.3862,0.3913,0.3921,0.3951,0.403,0.409,0.4162,0.4303,0.4389,0.4511,0.4613,0.4713,0.4825,0.4823,0.4903,0.4938,0.4871,0.4863,0.4797,0.4788,0.4747,0.4713,0.4902,0.4902,0.4901,0.49,0,0.379,0.3824,0.3838,0.3903,0.3925,0.3945,0.4078,0.4127,0.4281,0.4413,0.4463,0.4688,0.4825,0.4925,0.5003,0.4989,0.4919,0.5023,0.4944,0.4925,0.4825,0.4795,0.459,0.4485,0.5019,0.5019,0.5019,0,0.3759,0.3757,0.3802,0.3807,0.383,0.3885,0.3926,0.4083,0.4165,0.444,0.4503,0.4734,0.4878,0.5057,0.5057,0.5091,0.4944,0.5022,0.4922,0.485,0.4811,0.4544,0.4451,0.4884,0.4883,0.4882,0.4882,0,0.37,0.3706,0.3714,0.3726,0.3752,0.379,0.3874,0.3951,0.4137,0.43,0.4512,0.4672,0.4918,0.4985,0.5082,0.5061,0.4841,0.5006,0.4961,0.4753,0.4438,0.4323,0.4787,0.4876,0.4876,0.4877,0.4877,0.4877,0.3643,0.3623,0.3626,0.3625,0.3651,0.3668,0.367,0.3802,0.3938,0.4145,0.4377,0.4582,0.4872,0.5026,0.4977,0.4924,0.4783,0.482,0.4805,0.4548,0.4399,0.4851,0.4907,0.4908,0.4908,0.4909,0.4909,0,0.3557,0.3536,0.353,0.3511,0.3482,0.3542,0.3604,0.3602,0.3693,0.3963,0.4159,0.4483,0.4657,0.4816,0.4904,0.4773,0.451,0.4668,0.4318,0.4249,0.4719,0.4672,0.4645,0.4645,0.4645,0.4645,0.4645,0.4645,0.351,0.3453,0.3436,0.3342,0.3326,0.3258,0.3258,0.3299,0.3446,0.3648,0.3845,0.4069,0.4521,0.4823,0.4804,0.4683,0.4349,0.417,0.4104,0.4531,0.4542,0.4554,0.4503,0.444,0.444,0.348,0.3474,0.3469]},{"header":{"parameterUnit":"m.s-1","parameterCategory":2,"la1":30.2991,"la2":30.254,"lo1":-89.0895,"lo2":-89.0444,"dy":0.0017,"dx":0.0017,"nx":28,"ny":28,"refTime":"2025-03-04T09:00:00:Z","depth":"0","parameterNumber":3,"parameterNumberName":"V-component_of_CURRENTS"},"data":[0,0,0,0,0,0,0,0,0,0,0,0,0,0,0,0,0,0,0,0,0,0,0,0,0,0,0,0,0,0,0,0,0,0,0,0,0,0,0,0,0,0,0,0,0,0,0,0,0,0,0,0,0,0,0,0,0,0,0.0455,0.0454,0,0.0399,0.0399,0.0398,0.0353,0.0353,0.0352,0.0352,0.0273,0.0272,0.027,0,0,0,0,0,0,0,0,0,0,0,0,0,0.046,0.046,0.0455,0.0454,0.0454,0.04,0.0399,0.0398,0.0353,0.0353,0.0352,0.0352,0.0274,0.0272,0.027,0,0,0,0,0,0,0,0,0,0,0,0,0,0.0435,0.046,0.0455,0.0426,0.0423,0.04,0.0399,0.0397,0.0353,0.0353,0.0352,0.0352,0.0275,0.0272,0.0269,0.0261,0,0,0.0261,0.026,0,0,0,0,0,0,0,0,0.0436,0.0434,0.0431,0.0428,0.0425,0.0384,0.0371,0.0351,0.0353,0.0378,0.0352,0.0352,0.031,0.0304,0.0292,0.0257,0.0254,0.0261,0.0259,0.0258,0.0257,0,0,0,0,0,0,0,0.0438,0.0436,0.0431,0.0431,0.0427,0.0395,0.0391,0.0367,0.0345,0.0376,0.0373,0.037,0.0308,0.0295,0.029,0.0253,0.0261,0.0258,0.0257,0.0256,0.0207,0.0207,0,0,0,0,0,0,0.0453,0.0438,0.0433,0.043,0.0432,0.0396,0.0392,0.0396,0.0346,0.0338,0.037,0.0368,0.03,0.0293,0.0287,0.0294,0.0258,0.0255,0.0254,0.0207,0.0207,0.0207,0,0,0,0,0,0,0.0453,0.0453,0.0435,0.0433,0.0429,0.0397,0.0402,0.0395,0.0387,0.0342,0.0334,0.0369,0.0299,0.0291,0.0275,0.029,0.0254,0.0252,0.0206,0.0207,0.0207,0.0295,0,0,0,0,0,0,0.0454,0.0454,0.046,0.0435,0.043,0.0435,0.0402,0.0395,0.0387,0.0383,0.0339,0.0331,0.0298,0.028,0.0272,0.0285,0.0249,0.0206,0.0206,0.0207,0.0291,0.0298,0.0304,0,0,0,0,0,0.0454,0.0473,0.0461,0.046,0.0441,0.0436,0.0431,0.0404,0.0387,0.0393,0.0361,0.0332,0.0278,0.0278,0.0269,0.0282,0.0205,0.0206,0.0207,0.0289,0.0297,0.0304,0,0,0,0,0,0,0.0477,0.047,0.0456,0.047,0.0458,0.043,0.043,0.0412,0.039,0.0385,0.034,0.033,0.032,0.0288,0.0289,0.0268,0.0236,0.0235,0.0301,0.0308,0.0314,0.0341,0.0247,0,0,0,0,0,0.0486,0.0499,0.0482,0.0492,0.0489,0.046,0.0453,0.0438,0.0416,0.0405,0.0375,0.034,0.0316,0.0303,0.0275,0.0267,0.0228,0.0267,0.0274,0.0279,0.0294,0.0242,0.0246,0.021,0.021,0.021,0,0,0.0497,0.0494,0.05,0.0498,0.0483,0.0495,0.0455,0.0454,0.0467,0.0401,0.0405,0.0363,0.0318,0.0309,0.0301,0.0286,0.0268,0.028,0.0286,0.0298,0.0244,0.0247,0.025,0.0211,0.021,0.021,0,0,0.0534,0.0524,0.0549,0.0547,0.0538,0.0522,0.0527,0.0505,0.0498,0.0493,0.0449,0.042,0.0382,0.0355,0.0336,0.036,0.0303,0.0345,0.0401,0.0351,0.0354,0.0356,0.0311,0.0308,0.0349,0.0349,0.0349,0,0.0546,0.0578,0.0555,0.0579,0.0589,0.0542,0.0574,0.0561,0.0537,0.0539,0.0507,0.0447,0.0406,0.0399,0.0404,0.0376,0.0338,0.0379,0.036,0.0361,0.0362,0.0315,0.0311,0.0354,0.0353,0.0353,0.0352,0,0.0605,0.0628,0.0643,0.0662,0.0666,0.0685,0.0669,0.0674,0.065,0.0626,0.0609,0.0543,0.0511,0.0486,0.0453,0.0441,0.0409,0.0375,0.0346,0.0371,0.032,0.0314,0.036,0.0358,0.0357,0.0356,0,0,0.0643,0.068,0.0686,0.072,0.0716,0.0736,0.0758,0.077,0.0795,0.0738,0.0758,0.0689,0.0638,0.0613,0.0556,0.0508,0.0472,0.0451,0.0446,0.0416,0.0362,0.0337,0.0327,0.0431,0.043,0.043,0.0326,0,0.0698,0.0774,0.0772,0.0842,0.0883,0.0863,0.0897,0.0897,0.0873,0.0876,0.0794,0.0775,0.0691,0.0674,0.0614,0.0513,0.046,0.0504,0.0335,0.033,0.0312,0.0321,0.0381,0.0293,0.0319,0.0318,0.0318,0,0.0758,0.0808,0.0889,0.0961,0.0977,0.1005,0.1057,0.1081,0.1059,0.1036,0.0983,0.0914,0.0845,0.0764,0.0598,0.0628,0.051,0.0416,0.0409,0.0355,0.0294,0.027,0.028,0.0099,0.0308,0.0309,0.0309,0,0.0815,0.0892,0.0968,0.0989,0.1051,0.1092,0.1122,0.1126,0.1177,0.1129,0.1147,0.1025,0.099,0.0819,0.0626,0.0611,0.0435,0.0387,0.0251,0.0247,0.0251,0.0249,0.0077,0.027,0.027,0.027,0.0271,0,0.0881,0.0943,0.1004,0.1049,0.1157,0.1165,0.1263,0.1267,0.1298,0.1361,0.1233,0.1259,0.1002,0.0876,0.067,0.045,0.0463,0.0268,0.0221,0.0282,0.0284,0.0087,-0.0023,0.0266,0.0267,0.0268,0.0269,0,0.0929,0.0964,0.1065,0.1151,0.1187,0.1262,0.1379,0.1455,0.1451,0.1531,0.1528,0.1438,0.1267,0.1003,0.0729,0.0532,0.0193,0.0219,0.0309,0.0274,-0.0022,-0.0128,-0.0378,-0.0477,0.0056,0.0054,0.0053,0,0.0961,0.1015,0.1141,0.1216,0.1258,0.1372,0.1468,0.152,0.1615,0.1656,0.1721,0.1588,0.1547,0.1134,0.0738,0.0369,0.0164,0.0167,0.0144,-0.0025,-0.0179,-0.0275,-0.0347,0.0178,0.0178,0.0179,0.0179,0,0.1024,0.106,0.1147,0.1303,0.1416,0.1565,0.1703,0.1814,0.1884,0.198,0.2072,0.2045,0.1644,0.1325,0.0791,0.051,0.0044,0.0156,-0.0041,-0.0113,-0.0205,-0.0325,0.0229,0.0179,0.0179,0.0179,0.0179,0.0179,0.1064,0.1135,0.1249,0.1402,0.1544,0.174,0.1894,0.2068,0.2267,0.2457,0.238,0.2449,0.1926,0.123,0.0763,0.0054,0.0026,-0.0111,-0.0231,-0.0316,-0.0401,0.0155,0.0063,0.0063,0.0062,0.0062,0.0061,0,0.1116,0.1205,0.1345,0.1535,0.1708,0.178,0.2048,0.2242,0.2519,0.2731,0.285,0.2736,0.206,0.1334,0.0364,-0.0178,-0.0416,-0.0477,-0.0587,-0.0648,-0.0158,-0.0139,-0.025,-0.0249,-0.0249,-0.0249,-0.0249,-0.0249,0.1145,0.1276,0.1355,0.1636,0.1786,0.2056,0.2231,0.2538,0.2789,0.3173,0.3342,0.3411,0.2972,0.1029,-0.0211,-0.052,-0.089,-0.1,-0.1206,-0.0846,-0.082,-0.0795,-0.0803,-0.1051,-0.1052,-0.1608,-0.1614,-0.1618]}],[{"header":{"parameterUnit":"m.s-1","parameterCategory":2,"la1":30.2991,"la2":30.254,"lo1":-89.0895,"lo2":-89.0444,"dy":0.0017,"dx":0.0017,"nx":28,"ny":28,"refTime":"2025-03-04T09:00:00:Z","depth":"2","parameterNumber":2,"parameterNumberName":"U-component_of_CURRENTS"},"data":[0,0,0,0,0,0,0,0,0,0,0,0,0,0,0,0,0,0,0,0,0,0,0,0,0,0,0,0,0,0,0,0,0,0,0,0,0,0,0,0,0,0,0,0,0,0,0,0,0,0,0,0,0,0,0,0,0,0,0.3922,0.3922,0,0.3948,0.3948,0.3948,0.3939,0.3939,0.3938,0.3938,0.3921,0.392,0.392,0,0,0,0,0,0,0,0,0,0,0,0,0,0.3876,0.3876,0.3922,0.3923,0.3923,0.3948,0.3948,0.3948,0.3939,0.3939,0.3938,0.3938,0.3921,0.3921,0.392,0,0,0,0,0,0,0,0,0,0,0,0,0,0.3895,0.3876,0.3922,0.3924,0.3925,0.3948,0.3948,0.3948,0.3939,0.3939,0.3938,0.3938,0.3921,0.3921,0.392,0.3926,0,0,0.3919,0.3919,0,0,0,0,0,0,0,0,0.3894,0.3896,0.3923,0.3924,0.3925,0.3943,0.3926,0.394,0.3939,0.393,0.3938,0.3938,0.3927,0.3926,0.3927,0.3926,0.3925,0.3919,0.3919,0.3919,0.3919,0,0,0,0,0,0,0,0.3892,0.3895,0.3929,0.3924,0.3925,0.3928,0.393,0.3928,0.3927,0.3931,0.3931,0.394,0.3926,0.3928,0.3927,0.3925,0.3919,0.3919,0.3919,0.3919,0.3979,0.3981,0,0,0,0,0,0,0.3896,0.3894,0.3928,0.393,0.3912,0.393,0.3931,0.3935,0.3928,0.3928,0.394,0.3939,0.3928,0.3927,0.3926,0.3966,0.3919,0.3919,0.3918,0.3977,0.398,0.3981,0,0,0,0,0,0,0.3895,0.3899,0.3927,0.3915,0.392,0.3931,0.3935,0.3935,0.3946,0.3936,0.3934,0.3951,0.3928,0.3927,0.3943,0.3964,0.3918,0.3918,0.3975,0.3978,0.398,0.4025,0,0,0,0,0,0,0.3893,0.3898,0.3901,0.3916,0.3921,0.3949,0.3936,0.3936,0.3953,0.3952,0.3944,0.3942,0.3928,0.3944,0.3943,0.3963,0.3918,0.3973,0.3976,0.398,0.4021,0.4029,0.4035,0,0,0,0,0,0.3892,0.3897,0.3901,0.3905,0.3925,0.395,0.3952,0.3957,0.3954,0.3963,0.3965,0.3942,0.3964,0.3945,0.3943,0.3964,0.3971,0.3975,0.3979,0.4018,0.4027,0.4035,0,0,0,0,0,0,0.3873,0.3897,0.3902,0.3912,0.3935,0.395,0.3958,0.3965,0.3974,0.3974,0.396,0.3959,0.3987,0.3973,0.3952,0.3995,0.3966,0.397,0.3997,0.4005,0.4012,0.4035,0.3918,0,0,0,0,0,0.3874,0.3884,0.391,0.3919,0.3932,0.3949,0.3959,0.3968,0.398,0.3983,0.398,0.3985,0.4002,0.4001,0.4012,0.4025,0.4038,0.4042,0.4049,0.4054,0.4075,0.4117,0.413,0.3995,0.3995,0.3995,0,0,0.3868,0.3884,0.3889,0.3917,0.3931,0.3955,0.3953,0.3978,0.4003,0.398,0.4006,0.4012,0.4016,0.4041,0.4051,0.4028,0.41,0.406,0.4064,0.4082,0.4123,0.4136,0.4147,0.3997,0.3997,0.3997,0,0,0.3864,0.3879,0.3889,0.3913,0.3946,0.3964,0.3976,0.4002,0.402,0.4045,0.405,0.4076,0.4076,0.4097,0.4104,0.4159,0.4145,0.4156,0.4196,0.4236,0.4248,0.4258,0.4289,0.4302,0.4148,0.4148,0.4148,0,0.3859,0.3871,0.3896,0.3917,0.3941,0.3971,0.3994,0.4023,0.4052,0.4077,0.4058,0.411,0.4108,0.4164,0.4185,0.4175,0.4191,0.4157,0.4245,0.4255,0.4265,0.4295,0.4308,0.415,0.415,0.415,0.4149,0,0.3863,0.3878,0.3889,0.3926,0.3959,0.3983,0.4035,0.4071,0.409,0.4115,0.4174,0.4185,0.4215,0.422,0.4216,0.4291,0.4279,0.4256,0.422,0.4281,0.4309,0.4322,0.4154,0.4153,0.4152,0.4152,0,0,0.3834,0.3882,0.3884,0.3899,0.3967,0.3987,0.4058,0.412,0.4157,0.4195,0.4246,0.4292,0.4304,0.4318,0.4325,0.4357,0.4434,0.4336,0.4337,0.4362,0.4523,0.4502,0.4514,0.4421,0.4424,0.4426,0.4513,0,0.3828,0.3854,0.3892,0.3925,0.3946,0.4013,0.4066,0.4134,0.4185,0.4241,0.4296,0.4339,0.4341,0.4355,0.4399,0.4437,0.4472,0.4413,0.4466,0.4468,0.4437,0.453,0.415,0.4195,0.4526,0.4528,0.4529,0,0.3817,0.3839,0.3865,0.3921,0.3937,0.3967,0.4062,0.4116,0.4225,0.4265,0.4343,0.4384,0.4482,0.4446,0.4563,0.4525,0.4538,0.4551,0.4554,0.4532,0.4472,0.4189,0.4206,0.4551,0.4549,0.4548,0.4546,0,0.3771,0.3817,0.3832,0.3852,0.3926,0.396,0.401,0.4117,0.4194,0.4292,0.4367,0.445,0.4534,0.4567,0.4641,0.4599,0.475,0.4684,0.4678,0.4676,0.4365,0.4332,0.4753,0.4753,0.4753,0.4753,0.4753,0,0.3746,0.3754,0.3804,0.3811,0.3841,0.3915,0.3974,0.4043,0.4179,0.426,0.4379,0.4477,0.4575,0.4683,0.468,0.4755,0.4791,0.4722,0.4713,0.4371,0.4339,0.4651,0.4638,0.4756,0.4755,0.4755,0.4754,0,0.3687,0.372,0.3734,0.3795,0.3816,0.3837,0.3964,0.4011,0.4161,0.4287,0.4337,0.4552,0.4683,0.478,0.4855,0.4839,0.4866,0.4869,0.4474,0.4418,0.4743,0.4732,0.4859,0.4859,0.486,0.486,0.486,0,0.3658,0.3657,0.37,0.3705,0.3728,0.3781,0.382,0.3972,0.4048,0.4313,0.4372,0.4596,0.4724,0.4894,0.484,0.4857,0.4921,0.453,0.4388,0.4785,0.4762,0.475,0.4738,0.3977,0.397,0.3964,0.396,0,0.3601,0.3609,0.3615,0.3628,0.3653,0.3687,0.3768,0.384,0.4018,0.417,0.4369,0.4513,0.47,0.4581,0.4651,0.4585,0.4495,0.442,0.4928,0.4038,0.3968,0.3942,0.3956,0.3908,0.3913,0.3917,0.392,0.3922,0.3546,0.3527,0.3531,0.353,0.3554,0.3565,0.3564,0.3673,0.3794,0.3939,0.4176,0.4246,0.4329,0.4248,0.4125,0.4005,0.4311,0.4095,0.4105,0.4123,0.4035,0.3973,0.3896,0.3901,0.3905,0.3909,0.3912,0,0.3453,0.3443,0.3436,0.3415,0.3372,0.3444,0.3497,0.3448,0.3501,0.3666,0.3802,0.3554,0.3546,0.3599,0.3357,0.3395,0.3266,0.3245,0.3029,0.3087,0.3138,0.2989,0.2577,0.2572,0.2567,0.2563,0,0,0.3405,0.3344,0.3326,0.3222,0.3215,0.312,0.3115,0.3074,0.312,0.3092,0.3095,0.3375,0.3535,0.2997,0.2955,0.2725,0.2862,0.2609,0.3695,0.3501,0.3544,0.3667,0.3513,0,0,0,0,0]},{"header":{"parameterUnit":"m.s-1","parameterCategory":2,"la1":30.2991,"la2":30.254,"lo1":-89.0895,"lo2":-89.0444,"dy":0.0017,"dx":0.0017,"nx":28,"ny":28,"refTime":"2025-03-04T09:00:00:Z","depth":"2","parameterNumber":3,"parameterNumberName":"V-component_of_CURRENTS"},"data":[0,0,0,0,0,0,0,0,0,0,0,0,0,0,0,0,0,0,0,0,0,0,0,0,0,0,0,0,0,0,0,0,0,0,0,0,0,0,0,0,0,0,0,0,0,0,0,0,0,0,0,0,0,0,0,0,0,0,0.0422,0.0422,0,0.0366,0.0365,0.0364,0.032,0.032,0.032,0.032,0.0242,0.0241,0.0239,0,0,0,0,0,0,0,0,0,0,0,0,0,0.0431,0.0432,0.0422,0.0422,0.0421,0.0366,0.0365,0.0364,0.032,0.032,0.032,0.0319,0.0243,0.0241,0.0239,0,0,0,0,0,0,0,0,0,0,0,0,0,0.0405,0.0432,0.0422,0.0394,0.0391,0.0366,0.0365,0.0364,0.032,0.032,0.032,0.0319,0.0244,0.0241,0.0238,0.023,0,0,0.023,0.0229,0,0,0,0,0,0,0,0,0.0407,0.0405,0.0399,0.0396,0.0393,0.0351,0.034,0.0318,0.0321,0.0345,0.032,0.0319,0.0278,0.0273,0.0261,0.0226,0.0223,0.023,0.0228,0.0227,0.0226,0,0,0,0,0,0,0,0.0409,0.0406,0.0398,0.0398,0.0395,0.0363,0.0359,0.0335,0.0313,0.0343,0.034,0.0337,0.0276,0.0264,0.0259,0.0221,0.023,0.0228,0.0226,0.0225,0.0176,0.0176,0,0,0,0,0,0,0.0423,0.0409,0.04,0.0397,0.0401,0.0364,0.0359,0.0363,0.0314,0.0306,0.0337,0.0335,0.0268,0.0262,0.0256,0.0262,0.0227,0.0225,0.0223,0.0176,0.0176,0.0176,0,0,0,0,0,0,0.0423,0.0423,0.0402,0.0402,0.0397,0.0365,0.0369,0.0363,0.0355,0.031,0.0302,0.0337,0.0268,0.026,0.0244,0.0258,0.0223,0.0221,0.0175,0.0176,0.0176,0.0263,0,0,0,0,0,0,0.0424,0.0424,0.043,0.0404,0.0398,0.0402,0.037,0.0362,0.0354,0.035,0.0307,0.0299,0.0267,0.0248,0.0241,0.0254,0.0219,0.0175,0.0176,0.0176,0.0259,0.0266,0.0272,0,0,0,0,0,0.0425,0.0443,0.0431,0.0429,0.0409,0.0403,0.0398,0.0371,0.0355,0.036,0.0329,0.03,0.0247,0.0247,0.0238,0.025,0.0175,0.0175,0.0176,0.0257,0.0265,0.0272,0,0,0,0,0,0,0.0449,0.044,0.0426,0.0439,0.0426,0.0396,0.0397,0.0379,0.0358,0.0353,0.0308,0.0298,0.0288,0.0257,0.0258,0.0236,0.0205,0.0204,0.0269,0.0276,0.0282,0.0309,0.0216,0,0,0,0,0,0.0459,0.047,0.0451,0.0462,0.0458,0.0428,0.0421,0.0405,0.0383,0.0373,0.0343,0.0308,0.0284,0.0271,0.0243,0.0236,0.0197,0.0235,0.0241,0.0247,0.0262,0.0211,0.0214,0.0179,0.0179,0.0179,0,0,0.047,0.0466,0.0472,0.0468,0.0452,0.0463,0.0423,0.0422,0.0434,0.0368,0.0373,0.0331,0.0286,0.0277,0.0269,0.0254,0.0236,0.0248,0.0253,0.0265,0.0212,0.0215,0.0218,0.0179,0.0179,0.0179,0,0,0.0507,0.0497,0.0521,0.0518,0.0507,0.0491,0.0496,0.0473,0.0466,0.046,0.0417,0.0388,0.0349,0.0323,0.0303,0.0327,0.0271,0.0312,0.0367,0.0317,0.032,0.0322,0.0278,0.0275,0.0316,0.0316,0.0316,0,0.0521,0.0551,0.0526,0.0549,0.0558,0.0511,0.0542,0.0528,0.0503,0.0505,0.0473,0.0414,0.0373,0.0365,0.037,0.0343,0.0305,0.0346,0.0327,0.0328,0.0328,0.0282,0.0278,0.032,0.032,0.0319,0.0319,0,0.0578,0.06,0.0615,0.0631,0.0635,0.0652,0.0635,0.064,0.0616,0.0591,0.0574,0.0509,0.0477,0.0452,0.0418,0.0407,0.0375,0.0341,0.0313,0.0337,0.0287,0.0281,0.0326,0.0325,0.0323,0.0322,0,0,0.0617,0.0651,0.0657,0.0689,0.0684,0.0702,0.0723,0.0733,0.0757,0.07,0.0719,0.0651,0.0601,0.0576,0.052,0.0472,0.0437,0.0416,0.0411,0.0382,0.0329,0.0303,0.0293,0.0396,0.0395,0.0395,0.0293,0,0.0671,0.0744,0.074,0.0809,0.0847,0.0827,0.086,0.0858,0.0833,0.0835,0.0754,0.0735,0.0653,0.0637,0.0577,0.0477,0.0425,0.0468,0.0301,0.0297,0.0278,0.0287,0.0304,0.0214,0.0287,0.0285,0.0285,0,0.0729,0.0777,0.0856,0.0925,0.094,0.0967,0.1017,0.1039,0.1016,0.0993,0.094,0.0873,0.0804,0.0725,0.0561,0.0591,0.0475,0.0382,0.0375,0.032,0.026,0.0199,0.02,0.0274,0.0275,0.0276,0.0277,0,0.0785,0.086,0.0933,0.0953,0.1013,0.1053,0.1081,0.1084,0.1133,0.1086,0.1102,0.0982,0.0947,0.0779,0.0588,0.0574,0.04,0.0353,0.0218,0.0215,0.0182,0.0177,0.0237,0.0237,0.0238,0.0238,0.0238,0,0.085,0.091,0.0969,0.1014,0.1119,0.1126,0.1221,0.1225,0.1253,0.1313,0.1188,0.1211,0.0959,0.0834,0.0632,0.0414,0.0427,0.0235,0.0189,0.0212,0.0211,0.0226,0.0226,0.0234,0.0235,0.0236,0.0236,0,0.0898,0.0931,0.1029,0.1113,0.1149,0.1222,0.1336,0.1409,0.1405,0.1482,0.1479,0.1388,0.1218,0.0958,0.0688,0.0494,0.0268,0.0185,0.0233,0.0194,0.0104,0.011,0.0028,0.0026,0.0024,0.0023,0.0022,0,0.0928,0.0981,0.1104,0.1178,0.1219,0.1331,0.1425,0.1475,0.1567,0.1603,0.1666,0.1534,0.1486,0.1078,0.0683,0.0317,0.0271,0.009,0.0062,0.0121,0.0084,0.0092,0.0099,0.0048,0.0047,0.0046,0.0046,0,0.0989,0.1025,0.1111,0.1264,0.1375,0.1521,0.1656,0.1763,0.183,0.1917,0.2002,0.1968,0.1567,0.1207,0.0679,0.042,0.0143,0.0067,0.0111,0.0106,0.0134,0.0099,0.0107,0.0041,0.0041,0.0042,0.0042,0.0042,0.1028,0.1098,0.121,0.1361,0.1501,0.1692,0.1843,0.1997,0.2185,0.2321,0.226,0.2209,0.1746,0.1095,0.0618,0.0102,0.0145,-0.0034,-0.003,-0.0025,0.0003,0.0028,-0.008,-0.008,-0.008,-0.008,-0.008,0,0.1075,0.1166,0.1304,0.1491,0.1656,0.1732,0.1993,0.2147,0.2392,0.2496,0.257,0.2129,0.1701,0.116,0.041,-0.002,-0.0068,-0.0176,-0.0131,-0.0122,-0.0115,-0.009,-0.0199,-0.0201,-0.0203,-0.0204,0,0,0.1101,0.1228,0.1305,0.1579,0.1731,0.1982,0.2152,0.2382,0.253,0.267,0.2643,0.2526,0.1874,0.1305,0.0692,0.0258,0.017,0.0157,0.0302,0.0439,0.0451,0.0016,0.0071,0,0,0,0,0]}],[{"header":{"parameterUnit":"m.s-1","parameterCategory":2,"la1":30.2991,"la2":30.254,"lo1":-89.0895,"lo2":-89.0444,"dy":0.0017,"dx":0.0017,"nx":28,"ny":28,"refTime":"2025-03-04T09:00:00:Z","depth":"4","parameterNumber":2,"parameterNumberName":"U-component_of_CURRENTS"},"data":[0,0,0,0,0,0,0,0,0,0,0,0,0,0,0,0,0,0,0,0,0,0,0,0,0,0,0,0,0,0,0,0,0,0,0,0,0,0,0,0,0,0,0,0,0,0,0,0,0,0,0,0,0,0,0,0,0,0,0.2498,0.2499,0,0.2572,0.2573,0.2573,0.2647,0.2648,0.265,0.2651,0.2752,0.2754,0.2756,0,0,0,0,0,0,0,0,0,0,0,0,0,0.2412,0.2413,0.2498,0.2499,0.25,0.2572,0.2573,0.2573,0.2647,0.2649,0.265,0.2651,0.2752,0.2754,0.2756,0,0,0,0,0,0,0,0,0,0,0,0,0,0.2462,0.2414,0.2497,0.2547,0.2552,0.2572,0.2573,0.2574,0.2647,0.2649,0.265,0.2652,0.2751,0.2754,0.2756,0.2735,0,0,0.2763,0.2764,0,0,0,0,0,0,0,0,0.2459,0.2465,0.2539,0.2544,0.255,0.2604,0.258,0.263,0.2646,0.2608,0.2651,0.2653,0.2706,0.2712,0.2718,0.274,0.2744,0.2763,0.2765,0.2766,0.2767,0,0,0,0,0,0,0,0.2456,0.2462,0.2525,0.254,0.2546,0.2563,0.2572,0.2589,0.2645,0.2612,0.2618,0.2629,0.2709,0.2716,0.2721,0.2745,0.2763,0.2765,0.2767,0.2768,0.292,0.2923,0,0,0,0,0,0,0.245,0.2459,0.2522,0.2527,0.2511,0.2564,0.2573,0.2583,0.2644,0.2656,0.2628,0.2633,0.2711,0.2718,0.2725,0.2849,0.2766,0.2768,0.2769,0.2918,0.2921,0.2924,0,0,0,0,0,0,0.2447,0.2454,0.2519,0.2497,0.2506,0.2563,0.2573,0.2584,0.2646,0.2656,0.2668,0.2687,0.2712,0.2722,0.2795,0.2848,0.2769,0.2771,0.2914,0.2918,0.2922,0.3003,0,0,0,0,0,0,0.2444,0.2453,0.2485,0.2496,0.2508,0.2566,0.2572,0.2584,0.2648,0.2657,0.271,0.2718,0.2714,0.2791,0.2797,0.285,0.2773,0.2911,0.2916,0.2921,0.2997,0.301,0.302,0,0,0,0,0,0.2441,0.2469,0.2486,0.2495,0.254,0.2568,0.2576,0.262,0.265,0.2683,0.2728,0.2719,0.2827,0.2795,0.2801,0.2856,0.2909,0.2915,0.292,0.2992,0.3007,0.302,0,0,0,0,0,0,0.2451,0.2479,0.2498,0.2536,0.2568,0.2582,0.2626,0.265,0.271,0.2739,0.2747,0.2758,0.2845,0.284,0.2805,0.2916,0.2868,0.2876,0.2921,0.2935,0.2946,0.2958,0.2775,0,0,0,0,0,0.2465,0.2499,0.252,0.2559,0.2579,0.2613,0.2642,0.2671,0.271,0.2741,0.2778,0.2822,0.2862,0.2893,0.2924,0.2979,0.2978,0.3021,0.3032,0.3042,0.3058,0.3099,0.3115,0.2943,0.2943,0.2943,0,0,0.2483,0.2503,0.2527,0.2566,0.2597,0.263,0.2636,0.2696,0.2743,0.2741,0.2838,0.2868,0.2888,0.2957,0.2994,0.2966,0.3092,0.3049,0.3057,0.3068,0.3107,0.3124,0.3138,0.2947,0.2946,0.2945,0,0,0.251,0.2553,0.2583,0.2613,0.2668,0.2685,0.2714,0.2761,0.2813,0.2885,0.2908,0.2974,0.3028,0.3058,0.3075,0.3167,0.3154,0.3186,0.3251,0.3291,0.3305,0.3318,0.3339,0.3353,0.3188,0.3188,0.3188,0,0.2536,0.2567,0.26,0.2632,0.2668,0.2715,0.2754,0.2804,0.2877,0.2923,0.2934,0.305,0.3073,0.3153,0.3195,0.3194,0.321,0.3193,0.3305,0.3317,0.3328,0.3347,0.3361,0.3193,0.3192,0.3192,0.3191,0,0.2562,0.261,0.2635,0.2689,0.2734,0.2781,0.2839,0.2911,0.2974,0.3013,0.3129,0.3165,0.3232,0.3254,0.3256,0.3358,0.3342,0.3314,0.3265,0.335,0.3365,0.3378,0.3199,0.3198,0.3196,0.3195,0,0,0.255,0.2636,0.265,0.2684,0.2772,0.28,0.2903,0.2985,0.3052,0.3142,0.3227,0.3318,0.3353,0.3377,0.3398,0.3441,0.3537,0.3427,0.3427,0.344,0.3629,0.3401,0.3392,0.3534,0.3537,0.3539,0.3606,0,0.2563,0.2625,0.2673,0.2749,0.2784,0.2868,0.2946,0.3038,0.3122,0.3216,0.3295,0.3382,0.3395,0.3443,0.3496,0.3534,0.3577,0.3522,0.3552,0.3553,0.3332,0.3402,0.3549,0.3615,0.3618,0.362,0.3622,0,0.2556,0.2603,0.2678,0.2772,0.2798,0.2862,0.2994,0.3072,0.3213,0.3279,0.3391,0.345,0.3572,0.3548,0.367,0.364,0.3655,0.3665,0.3667,0.3434,0.3348,0.3514,0.3645,0.3643,0.3641,0.364,0.3638,0,0.2498,0.2597,0.2661,0.2696,0.2813,0.2886,0.2966,0.3104,0.3193,0.3341,0.3425,0.354,0.3641,0.3682,0.3747,0.3721,0.3845,0.3794,0.3599,0.3583,0.3732,0.3718,0.3863,0.3863,0.3863,0.3863,0.3863,0,0.2458,0.2511,0.2648,0.2678,0.2764,0.2868,0.2979,0.3074,0.3234,0.3317,0.3471,0.3548,0.369,0.378,0.3781,0.3738,0.3879,0.3623,0.3588,0.3765,0.3754,0.3741,0.3726,0.3865,0.3865,0.3864,0.3864,0,0.2371,0.2464,0.2538,0.2684,0.2738,0.2805,0.299,0.3053,0.3235,0.3358,0.3422,0.3619,0.3708,0.3812,0.3882,0.3776,0.3745,0.3692,0.3895,0.3869,0.3445,0.3434,0.3454,0.3447,0.344,0.3435,0.3431,0,0.2322,0.2358,0.2525,0.2572,0.2648,0.277,0.284,0.303,0.3098,0.3351,0.3383,0.3578,0.3666,0.3604,0.3706,0.3687,0.3646,0.3603,0.3501,0.344,0.3406,0.3404,0.3402,0.3421,0.3419,0.3417,0.3416,0,0.2227,0.2315,0.2377,0.2479,0.2567,0.264,0.2764,0.2803,0.2998,0.321,0.3258,0.3303,0.3406,0.3441,0.3479,0.345,0.3604,0.3536,0.3547,0.3451,0.34,0.3371,0.3376,0.3394,0.3397,0.3399,0.34,0,0.2164,0.2183,0.2282,0.2343,0.2446,0.246,0.2549,0.2617,0.2718,0.2991,0.2987,0.3175,0.3357,0.3319,0.3333,0.331,0.3242,0.3109,0.3141,0.3167,0.304,0.293,0.2757,0,0,0,0,0,0.2079,0.2076,0.213,0.2174,0.2263,0.2319,0.2463,0.2555,0.2754,0.271,0.2844,0.2904,0.2941,0.3041,0.2956,0.3197,0.3255,0.3082,0.312,0.3273,0.3298,0.3174,0,0,0,0,0,0,0.2019,0.2069,0.2071,0.2015,0.2011,0.2081,0.2161,0.2298,0.2287,0.2508,0.2552,0.2719,0.2812,0.2962,0.29,0.2927,0.2885,0.3205,0.3197,0.3258,0.3281,0.3302,0.3183,0,0,0,0,0]},{"header":{"parameterUnit":"m.s-1","parameterCategory":2,"la1":30.2991,"la2":30.254,"lo1":-89.0895,"lo2":-89.0444,"dy":0.0017,"dx":0.0017,"nx":28,"ny":28,"refTime":"2025-03-04T09:00:00:Z","depth":"4","parameterNumber":3,"parameterNumberName":"V-component_of_CURRENTS"},"data":[0,0,0,0,0,0,0,0,0,0,0,0,0,0,0,0,0,0,0,0,0,0,0,0,0,0,0,0,0,0,0,0,0,0,0,0,0,0,0,0,0,0,0,0,0,0,0,0,0,0,0,0,0,0,0,0,0,0,0.0267,0.0266,0,0.0226,0.0225,0.0225,0.0199,0.0199,0.0199,0.0199,0.0149,0.0147,0.0146,0,0,0,0,0,0,0,0,0,0,0,0,0,0.0284,0.0284,0.0267,0.0266,0.0266,0.0226,0.0225,0.0225,0.0199,0.0199,0.0199,0.0199,0.0149,0.0147,0.0146,0,0,0,0,0,0,0,0,0,0,0,0,0,0.0262,0.0284,0.0267,0.0249,0.0247,0.0226,0.0225,0.0224,0.02,0.0199,0.0199,0.0199,0.0149,0.0148,0.0146,0.0136,0,0,0.014,0.0139,0,0,0,0,0,0,0,0,0.0264,0.0262,0.0252,0.025,0.0248,0.0218,0.0212,0.0195,0.02,0.0217,0.0199,0.0199,0.0171,0.0168,0.0159,0.0134,0.0132,0.014,0.0138,0.0138,0.0137,0,0,0,0,0,0,0,0.0265,0.0263,0.025,0.0252,0.0249,0.0229,0.0227,0.0209,0.0195,0.0215,0.0214,0.021,0.017,0.0161,0.0158,0.0131,0.014,0.0138,0.0137,0.0136,0.0102,0.0102,0,0,0,0,0,0,0.0274,0.0265,0.0251,0.0249,0.0256,0.0229,0.0226,0.0227,0.0195,0.019,0.021,0.0209,0.0165,0.016,0.0156,0.0167,0.0138,0.0136,0.0135,0.0101,0.0102,0.0102,0,0,0,0,0,0,0.0274,0.0273,0.0253,0.0256,0.0252,0.023,0.0231,0.0227,0.0226,0.0191,0.0186,0.0215,0.0164,0.0159,0.0151,0.0164,0.0135,0.0133,0.0101,0.0102,0.0102,0.0174,0,0,0,0,0,0,0.0275,0.0274,0.0281,0.0257,0.0252,0.0254,0.0231,0.0226,0.0223,0.0222,0.0193,0.0188,0.0164,0.0154,0.0149,0.0161,0.0132,0.0101,0.0101,0.0102,0.0172,0.0177,0.0182,0,0,0,0,0,0.0276,0.0291,0.0281,0.028,0.0262,0.0254,0.0251,0.0233,0.0224,0.0231,0.021,0.0189,0.0153,0.0153,0.0147,0.0159,0.0101,0.0101,0.0102,0.0169,0.0176,0.0182,0,0,0,0,0,0,0.0303,0.0289,0.0278,0.0288,0.0277,0.0251,0.0256,0.0241,0.023,0.0229,0.0196,0.0189,0.0186,0.0161,0.0162,0.0148,0.0122,0.0121,0.0175,0.0181,0.0186,0.021,0.013,0,0,0,0,0,0.0312,0.032,0.0299,0.0308,0.0305,0.0281,0.0277,0.0265,0.0249,0.0244,0.0224,0.02,0.0181,0.0174,0.0153,0.015,0.0117,0.015,0.0156,0.016,0.0174,0.0131,0.0133,0.0104,0.0104,0.0104,0,0,0.0325,0.0318,0.0323,0.0314,0.0303,0.031,0.0279,0.028,0.0291,0.0241,0.0251,0.0219,0.0184,0.018,0.0175,0.0163,0.015,0.0161,0.0165,0.0177,0.0131,0.0134,0.0137,0.0104,0.0104,0.0104,0,0,0.0357,0.035,0.0367,0.0362,0.0352,0.0338,0.0343,0.0324,0.0322,0.0321,0.0287,0.0267,0.0241,0.0219,0.0204,0.0224,0.0179,0.0213,0.0261,0.0218,0.0221,0.0222,0.0183,0.0181,0.0216,0.0216,0.0217,0,0.0374,0.0392,0.0371,0.0385,0.0392,0.0357,0.038,0.0371,0.0353,0.0356,0.0335,0.0292,0.0261,0.0255,0.026,0.0238,0.0206,0.0243,0.0226,0.0227,0.0227,0.0187,0.0183,0.022,0.022,0.0219,0.0219,0,0.0413,0.0431,0.0443,0.0451,0.0454,0.0469,0.0454,0.0462,0.0449,0.043,0.0421,0.0371,0.0349,0.0328,0.0302,0.0293,0.0267,0.0238,0.0215,0.0235,0.0191,0.0186,0.0225,0.0224,0.0223,0.0222,0,0,0.0442,0.0467,0.0473,0.0498,0.0494,0.0507,0.0529,0.0537,0.056,0.052,0.0538,0.0487,0.0452,0.0432,0.0387,0.0348,0.0318,0.0303,0.0299,0.0272,0.0226,0.0198,0.0189,0.0285,0.0284,0.0284,0.0193,0,0.0481,0.0533,0.0532,0.0588,0.0615,0.0605,0.0635,0.0636,0.0622,0.0629,0.0567,0.0559,0.0493,0.0486,0.0436,0.0352,0.0309,0.0346,0.0203,0.02,0.0178,0.0183,0.0283,0.0189,0.0188,0.0187,0.0187,0,0.0516,0.0552,0.0615,0.0675,0.0687,0.0716,0.0763,0.0785,0.0774,0.0759,0.0723,0.0673,0.062,0.0559,0.0421,0.0447,0.035,0.0273,0.0267,0.0215,0.0162,0.0163,0.0177,0.0178,0.0178,0.0179,0.018,0,0.0549,0.0611,0.0672,0.0688,0.0742,0.0783,0.0816,0.0826,0.0868,0.0843,0.0858,0.0765,0.0741,0.0602,0.0442,0.0434,0.028,0.0245,0.0125,0.0122,0.0143,0.0142,0.0148,0.0148,0.0148,0.0149,0.0149,0,0.0584,0.0636,0.07,0.0734,0.0827,0.0842,0.093,0.094,0.0973,0.102,0.0933,0.0942,0.0752,0.0643,0.0476,0.0288,0.0301,0.014,0.0099,0.0174,0.0178,0.0139,0.0139,0.0145,0.0146,0.0147,0.0147,0,0.0601,0.064,0.0721,0.0805,0.0844,0.091,0.1023,0.1083,0.1096,0.1156,0.1159,0.1082,0.0933,0.0729,0.0503,0.0349,0.0158,0.0085,0.0191,0.0156,0.002,0.0024,-0.005,-0.0051,-0.0053,-0.0054,-0.0055,0,0.0609,0.0651,0.0775,0.0841,0.0886,0.0992,0.1075,0.1136,0.1203,0.1238,0.1275,0.117,0.1079,0.0756,0.0517,0.019,0.0135,0.0027,0.0014,0.0033,0.0,0.0007,0.0014,-0.0057,-0.0058,-0.0058,-0.0058,0,0.0625,0.0672,0.0745,0.0883,0.0987,0.1112,0.1232,0.1295,0.1362,0.138,0.1371,0.1207,0.1039,0.0769,0.0512,0.0274,0.009,0.0011,0.0012,-0.0001,0.0022,-0.0007,0.0001,-0.0064,-0.0063,-0.0062,-0.0062,0,0.0637,0.0689,0.0792,0.0918,0.1056,0.1193,0.1258,0.135,0.1423,0.1457,0.1447,0.1261,0.1158,0.0813,0.0576,0.0336,0.0267,0.0171,0.0163,0.0165,0.024,0.0302,0.0275,0,0,0,0,0,0.0641,0.0707,0.082,0.0966,0.1107,0.1199,0.135,0.1406,0.1476,0.148,0.1469,0.1307,0.0971,0.0843,0.06,0.0523,0.0207,0.0225,0.0087,-0.0091,-0.0086,-0.0039,0,0,0,0,0,0,0.0642,0.0741,0.081,0.0987,0.1096,0.1262,0.1366,0.1419,0.1432,0.1455,0.1298,0.1219,0.0909,0.1108,0.0587,0.0516,0.0387,0.0078,0.0071,-0.0095,-0.0089,-0.0085,-0.0034,0,0,0,0,0]}]]